Flag for Portugal Weather past 2 weeks in Setúbal, Portugal

Now
43 °F

Clear.


Feels Like: 37 °F
Forecast: 41 / 53 °F
Wind: 10 mph from Northeast

Location: Lisbon Portela Airport

Current Time: Dec 29, 2014 at 6:52:01 AM

Latest Report: Dec 29, 2014 at 6:00 AM


Visibility: 10 mi

Pressure: 30.36 "Hg

Humidity: 76%

Dew point: 36 °F

Location of SetúbalLocation

Historic Weather in Setúbal — Graph

°F

Setúbal temperature yesterday

Maximum temperature yesterday: 59 °F (at 11:00 AM)
Minimum temperature yesterday: 48 °F (at 11:00 PM)
Average temperature yesterday: 54 °F

Past Weeks' High & Low Weather Summary

 TemperatureHumidityPressure
High61 °F (Dec 16, 12:00 PM)100% (Dec 16, 8:00 AM)30.54 "Hg (Dec 16, 8:00 AM)
Low37 °F (Dec 20, 6:30 AM)59% (Dec 25, 3:00 PM)29.74 "Hg (Dec 14, 5:00 AM)
Average51 °F85%30.35 "Hg
* Reported Dec 14 5:00 AM — Dec 29 5:30 AM, Setúbal, Weather by CustomWeather, © 2014

Note: Actual official high and low records may vary slightly from our data, if they occured in-between our weather recording intervals... More about our weather records

Advertising

Setúbal weather history for previous 24 hours

 ConditionsComfort  
Time TempWeatherWind HumidityBarometerVisibility
5:30 AM
Dec 29
45 °FClear.13 mph76%30.36 "Hg10 mi
5:00 AM45 °FClear.13 mph76%30.36 "Hg10 mi
4:30 AM46 °FClear.12 mph71%30.36 "Hg10 mi
4:00 AM46 °FClear.10 mph66%30.36 "Hg10 mi
3:00 AM48 °FClear.12 mph66%30.33 "Hg10 mi
2:30 AM46 °FClear.9 mph76%30.33 "Hg10 mi
2:00 AM46 °FClear.9 mph82%30.33 "Hg10 mi
1:30 AM48 °FClear.12 mph82%30.33 "Hg10 mi
1:00 AM48 °FClear.8 mph82%30.30 "Hg10 mi
12:30 AM50 °FPassing clouds.9 mph76%30.30 "HgN/A
12:00 AM50 °FPassing clouds.8 mph76%30.30 "HgN/A
11:30 PM
Dec 28
50 °FPassing clouds.5 mph76%30.30 "HgN/A
11:00 PM48 °FPassing clouds.3 mph82%30.30 "HgN/A
10:30 PM52 °FPassing clouds.9 mph72%30.30 "HgN/A
10:00 PM50 °FPassing clouds.12 mph76%30.30 "HgN/A
9:30 PM50 °FPassing clouds.13 mph82%30.30 "HgN/A
9:00 PM52 °FPassing clouds.12 mph82%30.27 "HgN/A
8:30 PM52 °FPassing clouds.12 mph82%30.27 "HgN/A
8:00 PM52 °FPassing clouds.12 mph88%30.27 "HgN/A
7:30 PM52 °FPassing clouds.10 mph88%30.27 "HgN/A
7:00 PM54 °FPassing clouds.14 mph82%30.27 "HgN/A
6:30 PM54 °FPassing clouds.13 mph82%30.27 "HgN/A
6:00 PM54 °FPassing clouds.14 mph82%30.24 "HgN/A
5:30 PM55 °FPassing clouds.16 mph82%30.24 "HgN/A
5:00 PM55 °FPartly sunny.13 mph88%30.24 "HgN/A
4:30 PM57 °FScattered showers. Partly sunny.12 mph88%30.24 "HgN/A
4:00 PM57 °FScattered clouds.13 mph82%30.24 "HgN/A
3:30 PM57 °FPassing clouds.13 mph82%30.21 "HgN/A
3:00 PM59 °FPartly sunny.14 mph77%30.21 "HgN/A
2:30 PM59 °FPartly sunny.13 mph82%30.21 "HgN/A
2:00 PM59 °FPartly sunny.13 mph82%30.21 "HgN/A
1:30 PM57 °FLight rain. Partly sunny.10 mph88%30.24 "Hg4 mi
1:00 PM57 °FScattered showers. Partly sunny.12 mph88%30.24 "HgN/A
12:30 PM57 °FPartly sunny.10 mph88%30.24 "HgN/A
12:00 PM57 °FPartly sunny.13 mph82%30.27 "HgN/A
11:30 AM57 °FPartly sunny.12 mph82%30.27 "HgN/A
11:00 AM59 °FPartly sunny.14 mph77%30.30 "HgN/A
10:30 AM57 °FPartly sunny.12 mph82%30.30 "HgN/A
10:00 AM57 °FPartly sunny.12 mph77%30.30 "HgN/A
9:30 AM55 °FPartly sunny.9 mph82%30.27 "HgN/A
9:00 AM55 °FPartly sunny.9 mph88%30.27 "HgN/A
8:30 AM54 °FScattered clouds.9 mph88%30.27 "HgN/A
8:00 AM54 °FPassing clouds.10 mph88%30.27 "HgN/A
7:30 AM54 °FPassing clouds.10 mph88%30.27 "HgN/A
7:00 AM54 °FPassing clouds.10 mph88%30.27 "HgN/A
6:30 AM54 °FPassing clouds.9 mph82%30.27 "HgN/A
6:00 AM54 °FPassing clouds.9 mph82%30.27 "HgN/A
Weather by CustomWeather, © 2014

See weather overviewHow to use our weather pages